Location: Ca��n la Puerta
(32.5440°N, 116.6804°W)
Time: 01:08:31
(UTC+00:00)

CZ-3B R/B - Pass Details

Date: 15 June 2021
Orbit: 339 x 17331 km, 54.9° (Epoch: 02 August)

Event Time Altitude Azimuth Distance (km) Brightness Sun altitude
Rises 12:03:37 0° 330° (NNW) 2,710 5.4 -7.2°
Reaches altitude 10° 12:06:37 10° 358° (N) 1,370 4.3 -6.7°
Maximum altitude 12:08:11 15° 38° (NE) 1,047 4.6 -6.4°
Drops below altitude 10° 12:09:41 10° 79° (E) 1,312 5.1 -6.1°
Sets 12:12:25 0° 108° (ESE) 2,504 5.8 -5.6°
